GW4629 Weather Reports


Display with metric or nautical units.
time (UTC)temp
F
wind
direction
speed
MPH
gust
MPH
rain 1hr
in
rain 24hr
in
rain mn
in
humidity
%
barometer
mb
20260906150741 68 115 8.0 10.0 0.00 0.00 0.00 99 1027.5
20260906150236 66 121 10.0 11.0 0.00 0.00 0.00 99 1027.5
20260906145736 66 121 10.0 11.0 0.00 0.00 0.00 99 1027.5
20260906145234 65 128 9.0 9.0 0.00 0.00 0.00 99 1027.5
20260906144730 65 128 9.0 9.0 0.00 0.00 0.00 99 1027.5
20260906144224 65 109 8.0 9.0 0.00 0.00 0.00 99 1027.6
20260906143724 65 109 8.0 9.0 0.00 0.00 0.00 99 1027.6
20260906143221 63 151 8.0 8.0 0.00 0.00 0.00 99 1027.6
20260906142720 63 151 8.0 8.0 0.00 0.00 0.00 99 1027.6
20260906142216 62 105 6.0 8.0 0.00 0.00 0.00 99 1027.3
20260906141714 62 105 6.0 8.0 0.00 0.00 0.00 99 1027.3
20260906141209 61 146 8.0 9.0 0.00 0.00 0.00 99 1027.7
20260906140709 61 146 8.0 9.0 0.00 0.00 0.00 99 1027.7
20260906140204 61 107 7.0 7.0 0.00 0.00 0.00 99 1027.3
20260906135700 61 107 7.0 7.0 0.00 0.00 0.00 99 1027.3
20260906135157 60 103 7.0 8.0 0.00 0.00 0.00 99 1027.3
20260906134652 60 103 7.0 8.0 0.00 0.00 0.00 99 1027.3
20260906134147 59 102 7.0 8.0 0.00 0.00 0.00 99 1027.2
20260906133643 59 102 7.0 8.0 0.00 0.00 0.00 99 1027.2
20260906133138 60 124 9.0 9.0 0.00 0.00 0.00 99 1027.1
20260906132633 60 124 9.0 9.0 0.00 0.00 0.00 99 1027.1
20260906132128 60 163 10.0 11.0 0.00 0.00 0.00 99 1026.7
20260906131624 60 163 10.0 11.0 0.00 0.00 0.00 99 1026.7
20260906131119 60 151 9.0 10.0 0.00 0.00 0.00 99 1026.8
20260906130614 60 151 9.0 10.0 0.00 0.00 0.00 99 1026.8
20260906130109 60 127 8.0 8.0 0.00 0.00 0.00 99 1026.7
20260906125607 60 127 8.0 8.0 0.00 0.00 0.00 99 1026.7
20260906125105 60 107 5.0 6.0 0.00 0.00 0.00 99 1026.8
20260906124556 60 107 5.0 6.0 0.00 0.00 0.00 99 1026.8
20260906124051 59 121 7.0 8.0 0.00 0.00 0.00 99 1027.1
20260906123550 59 121 7.0 8.0 0.00 0.00 0.00 99 1027.1
20260906123045 58 138 6.0 7.0 0.00 0.00 0.00 99 1027.1
20260906122545 58 138 6.0 7.0 0.00 0.00 0.00 99 1027.1
20260906122041 59 119 9.0 10.0 0.00 0.00 0.00 99 1027.1
20260906121536 59 119 9.0 10.0 0.00 0.00 0.00 99 1027.1
20260906121033 59 142 9.0 10.0 0.00 0.00 0.00 99 1026.8
20260906120528 59 142 9.0 10.0 0.00 0.00 0.00 99 1026.8
20260906120025 59 150 8.0 9.0 0.00 0.00 0.00 99 1027.1
20260906115524 59 150 8.0 9.0 0.00 0.00 0.00 99 1027.1
20260906115019 59 168 9.0 11.0 0.00 0.00 0.00 99 1027.0
20260906114514 59 168 9.0 11.0 0.00 0.00 0.00 99 1027.0
20260906114010 59 82 5.0 6.0 0.00 0.00 0.00 99 1027.1
20260906113509 59 82 5.0 6.0 0.00 0.00 0.00 99 1027.1
20260906113005 59 114 11.0 14.0 0.00 0.00 0.00 99 1026.7
20260906112459 59 114 11.0 14.0 0.00 0.00 0.00 99 1026.7
20260906111956 59 98 10.0 10.0 0.00 0.00 0.00 99 1027.0
20260906111455 59 98 10.0 10.0 0.00 0.00 0.00 99 1027.0
20260906110955 58 144 9.0 10.0 0.00 0.00 0.00 99 1027.0
20260906110450 58 144 9.0 10.0 0.00 0.00 0.00 99 1027.0
20260906105949 59 129 8.0 9.0 0.00 0.00 0.00 99 1026.8
20260906105445 59 129 8.0 9.0 0.00 0.00 0.00 99 1026.8
20260906104941 59 102 11.0 14.0 0.00 0.00 0.00 99 1026.8
20260906104439 59 102 11.0 14.0 0.00 0.00 0.00 99 1026.8
20260906103938 59 139 11.0 13.0 0.00 0.00 0.00 99 1026.5
20260906103438 59 139 11.0 13.0 0.00 0.00 0.00 99 1026.5
20260906102933 59 136 10.0 10.0 0.00 0.00 0.00 99 1026.7
20260906102432 59 136 10.0 10.0 0.00 0.00 0.00 99 1026.7
20260906101927 59 132 11.0 11.0 0.00 0.00 0.00 99 1026.7
20260906101422 59 132 11.0 11.0 0.00 0.00 0.00 99 1026.7
20260906100918 59 131 11.0 11.0 0.00 0.00 0.00 99 1026.8
20260906100417 59 131 11.0 11.0 0.00 0.00 0.00 99 1026.8
20260906095912 60 123 11.0 13.0 0.00 0.00 0.00 99 1026.7
20260906095408 60 123 11.0 13.0 0.00 0.00 0.00 99 1026.7
20260906094908 60 154 11.0 11.0 0.00 0.00 0.00 99 1026.7
20260906094403 60 154 11.0 11.0 0.00 0.00 0.00 99 1026.7
20260906093859 59 154 9.0 10.0 0.00 0.00 0.00 99 1027.0
20260906093355 59 154 9.0 10.0 0.00 0.00 0.00 99 1027.0
20260906092855 60 119 11.0 13.0 0.00 0.00 0.00 99 1026.7
20260906092349 60 119 11.0 13.0 0.00 0.00 0.00 99 1026.7
20260906091845 60 129 11.0 13.0 0.00 0.00 0.00 99 1026.6
20260906091341 60 129 11.0 13.0 0.00 0.00 0.00 99 1026.6
20260906090837 60 151 9.0 10.0 0.00 0.00 0.00 99 1026.6
20260906090336 60 151 9.0 10.0 0.00 0.00 0.00 99 1026.6
20260906085830 60 126 10.0 10.0 0.00 0.00 0.00 99 1026.7
20260906085329 60 126 10.0 10.0 0.00 0.00 0.00 99 1026.7
20260906084824 60 160 11.0 14.0 0.00 0.00 0.00 99 1026.6
20260906084323 60 160 11.0 14.0 0.00 0.00 0.00 99 1026.6
20260906083813 61 137 10.0 10.0 0.00 0.00 0.00 99 1026.7
20260906083309 61 137 10.0 10.0 0.00 0.00 0.00 99 1026.7
20260906082808 61 107 8.0 9.0 0.00 0.00 0.00 99 1026.8
20260906082258 61 107 8.0 9.0 0.00 0.00 0.00 99 1026.8
20260906081754 60 118 7.0 8.0 0.00 0.00 0.00 99 1027.0
20260906081250 60 118 7.0 8.0 0.00 0.00 0.00 99 1027.0
20260906080746 60 120 10.0 11.0 0.00 0.00 0.00 99 1026.8
20260906080242 60 120 10.0 11.0 0.00 0.00 0.00 99 1026.8
20260906075741 61 130 9.0 10.0 0.00 0.00 0.00 99 1026.8
20260906075241 61 130 9.0 10.0 0.00 0.00 0.00 99 1026.8
20260906074737 62 98 6.0 7.0 0.00 0.00 0.00 99 1027.1
20260906074236 62 98 6.0 7.0 0.00 0.00 0.00 99 1027.1
20260906073736 62 150 3.0 3.0 0.00 0.00 0.00 99 1027.2
20260906073231 62 150 3.0 3.0 0.00 0.00 0.00 99 1027.2
20260906072726 63 103 4.0 4.0 0.00 0.00 0.00 99 1027.2
20260906072222 63 103 4.0 4.0 0.00 0.00 0.00 99 1027.2
20260906071718 63 132 2.0 2.0 0.00 0.00 0.00 99 1027.2
20260906071218 63 74 4.0 4.0 0.00 0.00 0.00 99 1027.5
20260906070714 63 74 4.0 4.0 0.00 0.00 0.00 99 1027.5
20260906070210 62 82 4.0 4.0 0.00 0.00 0.00 99 1027.3
20260906065704 62 82 4.0 4.0 0.00 0.00 0.00 99 1027.3
20260906065159 63 85 5.0 6.0 0.00 0.00 0.00 99 1027.2
20260906064655 63 85 5.0 6.0 0.00 0.00 0.00 99 1027.2
20260906064150 64 79 3.0 4.0 0.00 0.00 0.00 99 1027.6
20260906063645 64 79 3.0 4.0 0.00 0.00 0.00 99 1027.6
20260906063141 63 102 5.0 6.0 0.00 0.00 0.00 99 1027.3
20260906062637 63 102 5.0 6.0 0.00 0.00 0.00 99 1027.3
20260906062135 63 95 7.0 8.0 0.00 0.00 0.00 99 1027.5
20260906061631 63 95 7.0 8.0 0.00 0.00 0.00 99 1027.5
20260906061131 62 117 9.0 10.0 0.00 0.00 0.00 99 1027.2
20260906060627 62 117 9.0 10.0 0.00 0.00 0.00 99 1027.2
20260906060120 64 106 9.0 9.0 0.00 0.01 0.01 99 1027.3
20260906055615 64 106 9.0 9.0 0.00 0.01 0.01 99 1027.3
20260906055110 62 115 8.0 9.0 0.00 0.01 0.01 99 1027.2
20260906054610 62 115 8.0 9.0 0.00 0.01 0.01 99 1027.2
20260906054100 63 124 9.0 9.0 0.00 0.01 0.01 99 1026.8
20260906053556 63 124 9.0 9.0 0.00 0.01 0.01 99 1026.8
20260906053052 63 120 11.0 11.0 0.00 0.01 0.01 99 1027.0
20260906052546 63 120 11.0 11.0 0.00 0.01 0.01 99 1027.0
20260906052043 63 105 9.0 10.0 0.00 0.01 0.01 99 1027.1
20260906051538 63 105 9.0 10.0 0.00 0.01 0.01 99 1027.1
20260906051034 63 149 11.0 13.0 0.00 0.01 0.01 99 1027.2
20260906050530 63 149 11.0 13.0 0.00 0.01 0.01 99 1027.2
20260906050025 63 120 8.0 9.0 0.00 0.01 0.01 99 1027.1
20260906045523 63 120 8.0 9.0 0.00 0.01 0.01 99 1027.1
20260906045018 63 115 10.0 10.0 0.00 0.01 0.01 99 1027.0
20260906044514 63 115 10.0 10.0 0.00 0.01 0.01 99 1027.0
20260906044009 63 101 10.0 10.0 0.00 0.01 0.01 99 1026.8
20260906043505 63 101 10.0 10.0 0.00 0.01 0.01 99 1026.8
20260906043001 64 124 10.0 10.0 0.00 0.01 0.01 99 1026.8
20260906042500 64 124 10.0 10.0 0.00 0.01 0.01 99 1026.8
20260906041959 63 141 11.0 13.0 0.00 0.01 0.01 99 1026.8
20260906041456 63 141 11.0 13.0 0.00 0.01 0.01 99 1026.8
20260906040955 64 135 12.0 13.0 0.00 0.01 0.01 99 1026.8
20260906040450 64 135 12.0 13.0 0.00 0.01 0.01 99 1026.8
20260906035946 64 109 9.0 11.0 0.00 0.01 0.01 99 1027.0
20260906035441 64 109 9.0 11.0 0.00 0.01 0.01 99 1027.0
20260906034936 64 169 12.0 14.0 0.00 0.01 0.01 99 1027.1
20260906034431 64 169 12.0 14.0 0.00 0.01 0.01 99 1027.1
20260906033926 64 175 9.0 11.0 0.00 0.01 0.01 99 1027.2
20260906033421 64 175 9.0 11.0 0.00 0.01 0.01 99 1027.2
20260906032916 64 154 13.0 15.0 0.00 0.01 0.01 99 1026.8
20260906032413 64 154 13.0 15.0 0.00 0.01 0.01 99 1026.8
20260906031912 65 167 12.0 14.0 0.00 0.01 0.01 99 1026.8
20260906031408 65 167 12.0 14.0 0.00 0.01 0.01 99 1026.8
20260906030903 65 147 10.0 11.0 0.00 0.01 0.01 99 1026.7
20260906030358 65 147 10.0 11.0 0.00 0.01 0.01 99 1026.7
20260906025852 65 120 10.0 10.0 0.00 0.01 0.01 99 1026.8
20260906025346 65 120 10.0 10.0 0.00 0.01 0.01 99 1026.8
20260906024845 66 146 8.0 9.0 0.00 0.01 0.01 99 1026.8
20260906024344 66 146 8.0 9.0 0.00 0.01 0.01 99 1026.8
20260906023840 65 162 9.0 10.0 0.00 0.01 0.01 99 1026.6
20260906023336 65 162 9.0 10.0 0.00 0.01 0.01 99 1026.6
20260906022831 65 142 10.0 11.0 0.00 0.01 0.01 99 1026.6
20260906022326 65 142 10.0 11.0 0.00 0.01 0.01 99 1026.6
20260906021822 65 151 11.0 11.0 0.00 0.01 0.01 99 1026.5
20260906021321 65 151 11.0 11.0 0.00 0.01 0.01 99 1026.5
20260906020821 65 94 9.0 10.0 0.00 0.01 0.01 99 1026.5
20260906020315 65 94 9.0 10.0 0.00 0.01 0.01 99 1026.5
20260906015810 65 138 10.0 11.0 0.00 0.01 0.01 99 1026.3
20260906015308 65 138 10.0 11.0 0.00 0.01 0.01 99 1026.3
20260906014803 65 147 12.0 15.0 0.00 0.01 0.01 99 1026.3
20260906014259 65 147 12.0 15.0 0.00 0.01 0.01 99 1026.3
20260906013755 66 142 10.0 11.0 0.00 0.01 0.01 99 1026.6
20260906013255 66 142 10.0 11.0 0.00 0.01 0.01 99 1026.6
20260906012750 66 151 9.0 9.0 0.00 0.01 0.01 99 1026.6
20260906012245 66 151 9.0 9.0 0.00 0.01 0.01 99 1026.6
20260906011740 66 143 8.0 9.0 0.00 0.01 0.01 99 1026.6
20260906011240 66 143 8.0 9.0 0.00 0.01 0.01 99 1026.6
20260906010735 66 148 11.0 13.0 0.00 0.01 0.01 99 1027.0
20260906010232 66 148 11.0 13.0 0.00 0.01 0.01 99 1027.0
20260906005727 65 107 10.0 10.0 0.00 0.01 0.01 99 1027.0
20260906005226 65 107 10.0 10.0 0.00 0.01 0.01 99 1027.0
20260906004725 65 168 8.0 9.0 0.00 0.01 0.01 99 1027.0
20260906004220 65 168 8.0 9.0 0.00 0.01 0.01 99 1027.0
20260906003715 66 134 6.0 8.0 0.00 0.01 0.01 99 1027.2
20260906003211 66 134 6.0 8.0 0.00 0.01 0.01 99 1027.2
20260906002711 66 92 6.0 8.0 0.00 0.01 0.01 99 1027.0
20260906002206 66 92 6.0 8.0 0.00 0.01 0.01 99 1027.0
20260906001701 66 104 8.0 10.0 0.00 0.01 0.01 99 1027.0
20260906001156 66 104 8.0 10.0 0.00 0.01 0.01 99 1027.0
20260906000651 69 141 2.0 3.0 0.00 0.01 0.01 99 1027.3
20260906000146 69 141 2.0 3.0 0.00 0.01 0.01 99 1027.3
20260905235645 67 250 3.0 3.0 0.00 0.01 0.01 99 1027.8
20260905235140 67 250 3.0 3.0 0.00 0.01 0.01 99 1027.8
20260905234636 64 159 7.0 8.0 0.00 0.01 0.01 99 1028.1
20260905234132 63 97 18.0 19.0 0.07 0.01 0.01 99 1027.7
20260905233631 63 97 18.0 19.0 0.07 0.01 0.01 99 1027.7
20260905233125 73 79 9.0 14.0 0.00 0.00 0.00 99 1027.7
20260905232621 73 79 9.0 14.0 0.00 0.00 0.00 99 1027.7
20260905232117 73 131 6.0 7.0 0.00 0.00 0.00 99 1027.1
20260905231617 73 131 6.0 7.0 0.00 0.00 0.00 99 1027.1
20260905231113 73 94 2.0 2.0 0.00 0.00 0.00 99 1026.8
20260905230609 73 94 2.0 2.0 0.00 0.00 0.00 99 1026.8
20260905230107 73 12 10.0 13.0 0.00 0.00 0.00 99 1026.3
20260905225601 73 12 10.0 13.0 0.00 0.00 0.00 99 1026.3
20260905225056 73 346 11.0 14.0 0.00 0.00 0.00 99 1026.3
20260905224555 73 346 11.0 14.0 0.00 0.00 0.00 99 1026.3
20260905224054 73 14 17.0 21.0 0.00 0.00 0.00 99 1026.1
20260905223552 73 14 17.0 21.0 0.00 0.00 0.00 99 1026.1
20260905223049 78 89 14.0 17.0 0.00 0.00 0.00 99 1026.0
20260905222548 78 89 14.0 17.0 0.00 0.00 0.00 99 1026.0
20260905222043 78 343 6.0 9.0 0.00 0.00 0.00 99 1025.7
20260905221540 78 343 6.0 9.0 0.00 0.00 0.00 99 1025.7
20260905221035 78 300 10.0 13.0 0.00 0.00 0.00 99 1025.3
20260905220531 78 300 10.0 13.0 0.00 0.00 0.00 99 1025.3
20260905220027 79 301 3.0 3.0 0.00 0.00 0.00 99 1025.8
20260905215526 79 301 3.0 3.0 0.00 0.00 0.00 99 1025.8
20260905215023 80 206 3.0 3.0 0.00 0.00 0.00 99 1026.0
20260905214518 80 206 3.0 3.0 0.00 0.00 0.00 99 1026.0
20260905214013 81 262 8.0 9.0 0.00 0.00 0.00 99 1026.1
20260905213509 81 262 8.0 9.0 0.00 0.00 0.00 99 1026.1
20260905213004 82 301 4.0 4.0 0.00 0.00 0.00 99 1026.3
20260905212459 82 301 4.0 4.0 0.00 0.00 0.00 99 1026.3
20260905211958 80 214 2.0 2.0 0.00 0.00 0.00 99 1026.2
20260905211454 80 214 2.0 2.0 0.00 0.00 0.00 99 1026.2
20260905210950 79 359 6.0 7.0 0.00 0.00 0.00 99 1026.2
20260905210445 79 359 6.0 7.0 0.00 0.00 0.00 99 1026.2
20260905205944 79 271 8.0 11.0 0.00 0.00 0.00 99 1026.6
20260905205439 79 271 8.0 11.0 0.00 0.00 0.00 99 1026.6
20260905204938 81 308 5.0 8.0 0.00 0.00 0.00 99 1026.7
20260905204434 81 308 5.0 8.0 0.00 0.00 0.00 99 1026.7
20260905203933 81 279 4.0 6.0 0.00 0.00 0.00 99 1026.7
20260905203429 81 279 4.0 6.0 0.00 0.00 0.00 99 1026.7
20260905202924 79 255 4.0 6.0 0.00 0.00 0.00 99 1026.7
20260905202419 79 255 4.0 6.0 0.00 0.00 0.00 99 1026.7
20260905201915 78 14 4.0 4.0 0.00 0.00 0.00 99 1026.7
20260905201409 78 14 4.0 4.0 0.00 0.00 0.00 99 1026.7
20260905200904 78 306 7.0 8.0 0.00 0.00 0.00 99 1026.6
20260905200400 78 306 7.0 8.0 0.00 0.00 0.00 99 1026.6
20260905195857 78 352 6.0 8.0 0.00 0.00 0.00 99 1027.1
20260905195353 78 352 6.0 8.0 0.00 0.00 0.00 99 1027.1
20260905194849 78 344 8.0 9.0 0.00 0.00 0.00 99 1026.8
20260905194348 78 344 8.0 9.0 0.00 0.00 0.00 99 1026.8
20260905193847 77 0 6.0 8.0 0.00 0.00 0.00 99 1026.8
20260905193342 77 0 6.0 8.0 0.00 0.00 0.00 99 1026.8
20260905192838 78 320 10.0 11.0 0.00 0.00 0.00 99 1026.8
20260905192333 78 320 10.0 11.0 0.00 0.00 0.00 99 1026.8
20260905191833 79 333 6.0 7.0 0.00 0.00 0.00 99 1026.8
20260905191332 79 333 6.0 7.0 0.00 0.00 0.00 99 1026.8
20260905190831 80 138 1.0 1.0 0.00 0.00 0.00 99 1026.8
20260905190325 80 138 1.0 1.0 0.00 0.00 0.00 99 1026.8
20260905185823 78 121 1.0 2.0 0.00 0.00 0.00 99 1027.0
20260905185319 78 121 1.0 2.0 0.00 0.00 0.00 99 1027.0
20260905184812 80 73 1.0 2.0 0.00 0.00 0.00 99 1027.1
20260905184311 80 73 1.0 2.0 0.00 0.00 0.00 99 1027.1
20260905183810 79 264 5.0 6.0 0.00 0.00 0.00 99 1027.1
20260905183306 79 264 5.0 6.0 0.00 0.00 0.00 99 1027.1
20260905182800 78 272 9.0 9.0 0.00 0.00 0.00 99 1027.2
20260905182300 78 272 9.0 9.0 0.00 0.00 0.00 99 1027.2
20260905181755 78 287 6.0 7.0 0.00 0.00 0.00 99 1027.3
20260905181254 78 287 6.0 7.0 0.00 0.00 0.00 99 1027.3
20260905180749 78 321 6.0 10.0 0.00 0.00 0.00 99 1027.1
20260905180244 78 321 6.0 10.0 0.00 0.00 0.00 99 1027.1
20260905175738 79 40 3.0 4.0 0.00 0.00 0.00 99 1027.6
20260905175233 79 40 3.0 4.0 0.00 0.00 0.00 99 1027.6
20260905174728 78 265 4.0 4.0 0.00 0.00 0.00 99 1027.8
20260905174224 78 265 4.0 4.0 0.00 0.00 0.00 99 1027.8
20260905173720 78 261 7.0 8.0 0.00 0.00 0.00 99 1027.6
20260905173215 78 261 7.0 8.0 0.00 0.00 0.00 99 1027.6
20260905172709 79 79 2.0 3.0 0.00 0.00 0.00 99 1027.5
20260905172203 79 79 2.0 3.0 0.00 0.00 0.00 99 1027.5
20260905171659 82 84 4.0 6.0 0.00 0.00 0.00 99 1027.3
20260905171155 82 84 4.0 6.0 0.00 0.00 0.00 99 1027.3
20260905170652 80 91 2.0 3.0 0.00 0.00 0.00 99 1027.2
20260905170147 80 91 2.0 3.0 0.00 0.00 0.00 99 1027.2
20260905165646 79 140 3.0 4.0 0.00 0.00 0.00 99 1027.3
20260905165142 79 140 3.0 4.0 0.00 0.00 0.00 99 1027.3
20260905164637 77 142 6.0 6.0 0.00 0.00 0.00 99 1027.1
20260905164136 77 142 6.0 6.0 0.00 0.00 0.00 99 1027.1
20260905163632 77 93 3.0 3.0 0.00 0.00 0.00 99 1027.0
20260905163128 77 93 3.0 3.0 0.00 0.00 0.00 99 1027.0
20260905162624 77 73 6.0 8.0 0.00 0.00 0.00 99 1027.1
20260905162123 77 73 6.0 8.0 0.00 0.00 0.00 99 1027.1
20260905161623 77 102 8.0 9.0 0.00 0.00 0.00 99 1027.0
20260905161121 77 102 8.0 9.0 0.00 0.00 0.00 99 1027.0
20260905160621 76 116 9.0 10.0 0.00 0.00 0.00 99 1027.0
20260905160115 76 116 9.0 10.0 0.00 0.00 0.00 99 1027.0
20260905155609 75 143 11.0 13.0 0.00 0.00 0.00 99 1026.8
20260905155108 75 143 11.0 13.0 0.00 0.00 0.00 99 1026.8
20260905154608 75 149 7.0 8.0 0.00 0.00 0.00 99 1027.0
20260905154104 75 149 7.0 8.0 0.00 0.00 0.00 99 1027.0
20260905153600 74 139 11.0 13.0 0.00 0.00 0.00 99 1026.8
20260905153100 74 139 11.0 13.0 0.00 0.00 0.00 99 1026.8
20260905152554 73 112 13.0 15.0 0.00 0.00 0.00 99 1027.0
20260905152050 73 112 13.0 15.0 0.00 0.00 0.00 99 1027.0
20260905151545 73 107 12.0 14.0 0.00 0.00 0.00 99 1026.8
20260905151040 72 69 9.0 11.0 0.00 0.00 0.00 99 1026.8